Temp
17 16 18 20 20 21 21 22 22 24 23 22 23 24 25 26 25 25 26 26 27 27 28 28 28 27 26 25 23 22 20 19 15 15 17 16 15 15 15 15 15 15 15 15
16 17 20 21 20 19 20 21 21 22 22 21 22 23 24 25 25 25 26 26 27 27 27 28 28 27 26 25 23 22 21 20 16 17 17 17 15 14 15 14 15 15 15 14
17 20 20 20 19 18 20 20 21 20 21 22 22 23 25 25 26 25 25 25 26 26 26 27 27 27 27 25 23 22 21 20 18 19 18 17 16 14 14 14 14 14 15 14
17 19 18 18 18 19 19 21 20 20 19 20 20 22 24 24 24 24 24 25 25 25 25 26 26 27 27 26 24 22 22 21 18 19 18 16 16 16 16 15 14 14 14 14
16 17 17 17 18 19 19 19 19 19 20 20 21 20 24 23 24 23 23 22 22 23 23 25 26 26 26 26 24 22 21 21 19 18 18 17 18 18 17 16 14 14 15 14
17 17 18 18 18 18 19 18 18 19 19 18 21 21 24 23 22 22 22 22 22 22 23 23 24 24 25 26 24 21 20 20 19 17 17 17 18 18 17 15 16 15 15 15
16 16 16 17 16 17 18 18 17 16 15 19 20 20 23 22 21 21 21 22 22 22 22 23 23 25 25 25 22 20 20 20 18 16 17 17 16 17 17 16 17 17 15 14
16 14 15 16 18 17 17 18 19 19 19 21 19 20 23 21 21 22 22 22 22 21 20 22 24 24 25 24 21 20 20 19 16 14 16 16 15 17 17 16 17 16 16 14
16 15 16 17 17 18 17 16 18 16 17 17 21 22 22 21 22 22 22 21 20 19 17 18 22 24 24 23 21 20 19 19 15 14 14 14 16 17 16 16 16 15 13 12
17 14 16 16 17 16 17 18 15 16 16 17 21 21 22 21 21 21 21 21 19 18 15 14 20 22 23 22 20 18 17 17 14 13 13 14 16 16 16 15 14 14 13 12
17 17 14 16 16 17 16 16 16 17 16 17 19 20 20 20 20 20 20 20 18 15 13 12 15 19 21 20 19 16 16 15 14 13 13 15 16 16 15 15 14 14 13 12
16 17 15 16 16 18 17 17 17 17 14 16 16 19 20 20 20 20 20 18 17 15 11 10 11 15 18 19 17 15 15 14 13 12 13 15 15 15 15 15 14 13 13 12
16 16 14 14 15 17 16 17 15 12 14 15 17 20 20 20 20 19 18 15 14 12 9 9 9 10 12 15 15 15 14 12 12 12 13 14 14 15 15 15 14 13 13 13
15 15 17 17 16 16 15 16 16 16 15 16 17 19 20 20 19 18 17 14 14 12 8 8 7 8 8 9 12 13 12 12 12 12 13 13 13 15 15 14 14 13 13 13
14 14 15 15 15 16 16 16 16 16 16 15 18 18 19 19 18 18 14 11 11 10 7 6 6 6 7 7 7 8 12 12 12 12 13 13 13 13 13 13 13 13 13 13
12 13 15 14 15 15 15 16 16 16 16 17 17 18 18 12 12 10 9 9 8 7 6 5 4 5 6 6 6 6 6 6 8 8 9 12 12 12 12 13 12 12 12 13
14 14 14 13 14 14 14 15 15 16 17 17 15 16 13 7 6 4 5 6 5 5 4 3 3 3 4 4 4 4 4 4 4 4 5 6 7 8 10 11 11 12 12 13
14 14 14 13 13 13 14 16 16 16 15 14 14 11 9 6 4 3 3 3 3 3 3 1 1 1 2 4 4 3 3 3 2 2 3 3 4 4 6 7 7 9 9 10
14 14 13 13 14 14 14 13 13 13 14 11 10 10 11 8 8 4 2 1 1 1 1 1 -0 -0 0 2 3 3 3 2 2 1 1 1 2 2 3 3 3 4 5 5
13 13 14 13 12 12 12 13 14 14 13 10 9 8 9 8 10 5 2 0 0 -0 1 1 1 -0 -0 0 2 2 2 2 1 0 0 1 1 1 2 2 2 1 1 0
12 12 12 12 12 13 11 13 14 13 9 7 7 5 5 4 3 2 0 -0 -1 -1 -0 0 -0 0 -0 0 0 1 1 1 1 0 -0 -0 1 0 1 1 1 0 -1 -1
12 12 12 12 11 11 7 13 11 7 5 5 5 5 4 3 2 1 -0 -1 -1 -1 1 1 1 -1 -1 -1 -0 -0 -0 -1 -1 -0 -1 -1 -1 -0 0 0 -0 0 -0 -1
9 8 9 8 7 5 4 4 3 3 3 3 3 3 3 2 1 -0 -1 -1 -2 -2 -1 0 -0 -1 -2 -2 -2 -2 -1 -1 -1 -2 -1 -1 -2 -1 -2 -1 -1 -0 -0 -0
8 9 8 7 5 4 4 3 2 2 2 2 1 2 3 3 1 -0 -1 -1 -1 -2 -1 -1 0 -0 -1 -2 -3 -3 -2 -1 -1 -1 -2 -3 -3 -3 -2 -2 -3 -2 -2 -2
8 8 5 6 5 4 4 3 2 2 2 2 2 1 2 2 1 0 -1 -1 -2 -2 -2 -2 -1 -1 -2 -2 -3 -3 -3 -2 -1 -2 -2 -2 -3 -4 -5 -6 -5 -5 -5 -4
7 4 6 6 3 4 2 2 1 1 0 0 1 1 1 1 1 -0 -1 -2 -2 -3 -3 -3 -3 -3 -3 -3 -4 -4 -4 -3 -2 -2 -3 -3 -3 -3 -3 -4 -7 -7 -7 -6
Height
729 736 721 718 721 723 721 719 716 707 710 722 713 708 702 697 699 704 701 698 695 693 693 694 696 701 704 707 711 716 722 728 731 736 743 747 748 754 759 759 761 765 767 770
729 717 712 714 719 728 727 723 719 713 716 721 711 704 697 694 692 692 690 687 684 686 687 688 690 692 697 700 704 708 714 720 724 729 736 742 745 749 755 757 758 761 764 766
710 701 705 713 722 728 721 721 720 722 716 713 710 699 684 679 679 682 684 684 683 682 682 681 682 684 687 693 697 700 705 713 720 723 730 738 743 746 752 753 753 757 761 763
710 702 708 718 720 721 720 713 720 723 725 718 714 702 685 682 683 684 684 682 680 678 678 677 677 676 678 684 688 694 698 705 714 719 722 728 731 738 744 748 750 753 757 760
705 708 711 714 712 713 715 717 720 720 718 715 707 715 680 685 683 688 687 688 685 683 680 673 670 671 672 674 682 688 692 698 706 712 716 723 727 732 739 744 746 750 754 757
704 705 707 709 712 713 714 718 722 721 719 721 698 702 678 682 690 687 689 687 685 680 676 672 668 665 664 665 672 682 685 690 699 706 711 717 722 727 735 739 742 746 750 753
702 707 708 709 717 715 713 716 726 734 738 707 697 701 683 688 691 689 687 684 680 676 671 666 661 657 655 657 665 673 680 684 692 699 706 712 718 725 730 734 737 740 746 749
699 715 708 709 705 709 711 710 702 707 702 689 700 696 676 685 688 683 679 677 675 673 671 664 654 650 650 653 659 667 673 679 688 695 702 708 714 721 726 731 733 736 741 746
695 704 703 704 704 703 714 719 709 719 714 710 682 679 680 682 679 678 675 676 675 673 673 668 652 646 646 651 657 664 670 677 687 694 699 705 710 718 723 728 731 734 739 743
685 707 702 708 705 710 706 707 722 716 714 709 682 682 676 683 683 677 674 673 677 679 680 675 656 647 644 650 655 663 671 677 686 695 698 703 707 715 721 726 728 732 736 740
684 687 711 706 703 703 713 713 714 709 716 707 694 682 687 689 686 683 678 676 684 687 689 682 670 656 649 651 656 665 672 679 684 692 697 701 704 713 718 723 725 730 734 738
688 686 701 700 702 696 701 705 707 706 723 715 716 694 685 687 686 684 681 685 690 693 694 692 682 668 657 655 660 667 674 679 684 691 697 699 703 710 715 719 723 727 731 736
688 690 701 712 709 704 705 706 713 727 724 717 709 686 683 684 687 688 687 697 699 700 694 697 692 683 670 666 669 672 675 681 685 690 695 698 703 709 713 716 721 725 729 733
690 692 686 686 692 697 711 710 709 712 716 709 705 694 686 686 689 690 693 702 703 702 702 706 703 696 683 677 675 674 677 682 686 691 694 697 702 707 710 715 719 723 727 731
701 702 699 700 702 704 707 710 711 711 712 717 701 700 694 691 691 692 703 711 713 709 707 715 716 706 692 685 682 677 680 684 688 691 694 699 703 707 710 714 718 722 726 730
716 713 703 708 706 707 712 711 710 710 708 706 702 698 695 715 717 722 723 723 724 721 724 720 726 717 703 695 692 688 688 690 689 692 696 700 703 706 709 713 718 722 725 728
711 711 706 713 712 711 713 713 712 709 706 707 712 705 715 739 744 747 743 739 737 735 733 727 730 723 713 708 704 702 696 698 697 700 702 702 704 707 708 709 717 721 724 727
714 711 711 716 715 716 721 715 715 713 716 724 722 727 736 744 751 752 755 753 748 745 741 737 732 731 725 717 713 708 703 707 705 707 709 710 713 710 706 711 717 719 722 724
718 716 719 717 712 717 718 728 728 725 724 741 739 732 731 739 739 754 759 758 756 752 751 747 741 737 733 726 721 719 721 717 714 714 716 719 719 712 713 717 721 722 723 724
724 721 717 718 719 722 731 729 726 725 721 748 748 747 737 739 730 757 766 763 760 757 753 750 748 746 735 734 731 729 725 722 720 720 718 725 723 718 721 724 725 725 727 728
726 726 723 727 723 723 740 730 725 720 752 760 760 761 755 759 767 773 771 768 765 762 760 757 755 751 750 745 740 732 728 731 740 731 721 730 733 735 725 733 733 731 732 735
730 728 730 728 731 734 762 735 739 766 772 771 770 767 768 771 775 776 774 773 770 766 765 762 759 758 758 756 751 746 745 748 745 736 737 741 745 737 735 734 742 742 739 740
749 758 751 761 767 781 780 779 781 778 780 779 776 776 775 776 778 780 778 777 775 772 769 767 765 765 765 763 760 754 752 753 750 748 747 749 749 747 744 746 744 749 747 746
761 760 760 768 783 785 785 787 787 787 786 786 785 782 779 779 781 783 783 782 779 778 774 772 771 772 771 769 767 765 762 759 757 756 755 755 753 753 753 753 756 752 755 754
765 765 779 773 782 785 789 791 791 792 790 789 790 789 786 784 785 785 785 785 785 783 781 781 779 779 776 773 772 769 765 763 762 761 761 761 760 762 763 763 762 762 758 760
774 783 775 776 790 786 794 796 796 796 796 796 793 791 791 790 789 789 789 790 789 788 787 785 784 783 780 777 776 773 770 768 766 765 766 766 766 769 769 770 771 768 768 767
Wind_Speed
20 15 23 24 21 16 16 16 17 10 4 12 16 19 18 16 15 17 16 18 20 21 20 24 22 18 16 16 21 25 27 28 27 26 24 21 18 21 16 19 15 17 17 18
12 24 22 19 18 20 18 16 15 12 11 14 19 21 19 19 21 21 23 24 24 22 21 21 26 24 20 19 21 24 29 31 31 29 26 19 19 17 17 17 15 16 18 21
17 10 22 16 16 19 20 19 14 13 11 16 18 22 19 12 19 22 23 22 21 21 22 22 22 28 25 22 23 27 30 31 31 29 25 19 18 12 14 16 19 19 17 22
13 8 10 18 22 19 18 16 14 12 8 7 2 5 10 6 4 7 6 9 11 13 15 19 20 21 26 25 23 25 27 31 31 31 29 28 25 19 20 19 16 19 17 18
10 14 14 16 19 17 14 6 11 10 10 10 13 7 2 6 8 2 9 10 9 11 13 17 19 22 27 26 21 23 26 31 32 34 30 28 22 18 15 17 16 18 19 20
8 4 10 8 8 16 9 9 6 4 5 7 14 11 5 2 6 7 7 10 11 12 12 12 14 20 24 26 20 23 28 33 34 34 32 29 25 19 16 18 18 17 17 19
10 10 6 13 13 9 11 12 5 5 4 5 3 7 9 3 3 5 9 12 12 14 14 13 13 11 19 22 24 25 29 33 34 34 34 29 25 20 17 17 16 16 15 17
11 7 12 10 11 9 14 13 4 7 5 4 6 6 4 3 2 5 9 11 14 17 17 18 15 10 14 18 22 26 30 31 32 32 32 27 24 19 16 16 14 14 13 14
11 6 8 12 6 9 10 8 1 2 1 3 5 5 8 3 5 5 11 15 18 20 17 22 16 11 11 15 19 22 25 27 27 29 28 27 23 19 17 15 14 12 12 10
7 6 11 9 12 4 5 9 4 4 5 5 5 4 4 8 13 12 14 16 19 19 19 20 17 13 8 12 16 19 20 22 23 25 25 25 23 20 17 16 15 15 13 11
10 6 8 11 9 13 6 5 2 0 2 2 1 5 5 10 14 15 15 14 16 16 18 18 19 13 2 8 14 17 19 21 24 23 23 24 22 20 18 16 16 15 15 13
1 7 11 9 4 4 3 5 4 3 5 2 0 3 4 11 15 14 15 14 14 13 17 18 17 16 5 5 12 15 18 18 20 22 22 21 22 20 18 16 16 16 16 15
5 7 8 8 6 7 6 6 6 4 2 3 2 3 2 10 13 15 12 10 12 14 18 19 18 14 11 8 10 14 16 18 19 23 21 19 19 19 17 16 16 16 16 16
2 3 4 6 8 9 8 8 6 3 3 1 7 13 12 15 14 15 12 10 13 14 17 18 17 15 16 20 6 14 16 19 21 20 18 17 17 16 15 15 15 15 15 15
6 8 11 11 10 8 8 7 5 2 5 4 10 14 15 14 15 16 9 12 13 18 18 17 17 15 15 20 19 24 9 17 16 16 15 15 13 13 13 12 13 13 14 14
5 2 7 9 7 5 3 1 4 3 4 6 8 9 17 18 20 19 15 14 13 16 16 16 17 17 16 21 21 20 23 26 22 19 15 10 13 12 12 11 11 11 12 13
2 3 2 4 1 1 3 7 6 2 5 7 9 12 14 13 16 16 14 13 13 13 13 12 13 16 21 21 21 20 24 23 27 23 21 20 15 12 10 8 8 9 11 12
2 4 2 3 2 3 6 6 6 4 11 16 15 8 11 11 11 13 12 12 13 12 14 13 12 20 24 23 23 23 26 22 25 25 23 19 14 15 17 14 10 7 3 5
4 2 3 1 4 6 8 8 9 8 7 16 17 4 6 9 8 12 11 10 11 11 10 14 15 16 22 23 24 21 20 22 24 25 23 19 17 20 19 16 13 11 9 11
4 4 2 0 2 3 7 11 10 8 2 15 14 11 8 8 1 5 10 11 11 15 19 20 21 21 23 24 22 22 24 25 28 23 25 20 20 21 19 16 15 15 15 16
3 3 4 2 3 5 11 15 14 4 6 10 10 11 13 6 5 4 7 10 15 15 18 18 20 23 24 22 20 25 27 25 17 20 25 22 18 15 19 17 16 16 17 19
4 3 2 1 1 2 16 7 6 5 9 9 10 9 11 10 8 8 8 10 12 15 17 18 19 20 21 22 20 21 21 15 15 20 20 19 17 19 18 19 16 14 15 17
2 5 4 5 3 5 7 10 9 11 8 9 8 8 9 9 9 9 9 10 12 16 17 18 17 17 19 20 20 20 19 15 15 17 18 16 16 18 20 18 17 15 15 14
3 8 2 4 6 9 8 10 10 10 10 10 10 9 8 9 8 9 9 9 11 15 16 16 15 15 17 18 18 16 15 13 13 14 16 17 20 20 19 21 18 16 15 14
4 5 4 4 7 7 11 10 9 10 10 10 9 9 8 7 9 8 8 9 12 13 14 14 14 15 17 17 17 18 17 13 12 12 12 13 15 18 23 29 23 23 25 16
4 3 2 2 4 6 6 8 8 9 9 8 8 8 10 9 8 8 8 11 12 13 14 14 14 15 17 17 18 18 17 13 10 10 11 11 10 10 12 15 21 28 27 25
Wind_Direction
189 200 212 213 220 235 262 260 253 249 228 257 264 268 267 264 253 258 252 249 250 249 250 250 245 249 242 226 211 209 205 202 188 185 189 191 189 200 206 206 198 202 209 208
169 219 217 221 214 228 235 245 247 261 268 269 271 272 274 266 259 254 249 249 250 250 249 250 250 246 241 229 211 206 208 202 196 191 194 196 190 198 205 201 197 207 206 207
198 219 219 212 213 219 227 239 248 256 284 273 273 278 253 254 243 247 255 266 272 269 265 256 249 245 236 229 216 209 208 205 201 193 189 189 183 180 197 199 203 206 206 211
223 170 191 198 214 210 227 222 251 250 259 255 66 282 302 274 246 227 279 288 284 287 278 265 259 256 236 230 223 213 207 202 202 193 187 187 184 193 208 210 198 205 209 210
186 187 190 195 214 205 236 177 226 232 244 277 251 250 160 195 257 90 351 335 310 298 301 283 259 251 245 234 222 214 203 200 198 194 191 189 191 194 201 198 193 203 207 212
134 181 180 176 168 186 147 154 169 215 242 250 242 224 173 99 328 323 352 339 326 313 303 290 278 261 246 234 214 208 199 197 194 194 192 191 186 181 187 191 194 198 203 212
168 158 130 159 129 157 179 171 169 190 201 245 134 213 263 27 42 355 341 342 339 335 320 303 284 271 236 218 200 198 197 194 191 189 190 187 182 184 188 188 195 192 201 206
171 173 161 177 183 181 189 192 235 227 196 159 164 224 127 131 198 320 335 348 350 350 340 321 298 274 248 207 195 194 195 191 189 186 187 182 177 185 189 194 192 191 207 212
180 123 162 179 169 166 171 215 270 262 186 260 212 224 173 216 249 339 354 359 356 353 354 331 325 288 234 203 196 192 192 188 189 186 179 177 175 180 186 187 184 178 181 191
167 124 183 144 145 96 231 139 172 200 208 224 183 240 39 14 353 344 344 352 352 355 352 350 333 323 218 188 179 176 184 183 181 184 177 176 172 179 181 180 175 172 173 179
163 163 156 158 204 168 156 170 203 64 301 281 286 106 52 20 353 347 342 353 356 6 359 350 337 339 52 168 168 170 177 175 172 176 174 175 171 178 178 181 174 175 175 176
161 149 151 150 107 153 161 162 192 247 179 158 343 290 77 6 355 344 344 15 3 9 18 355 348 345 40 152 144 158 165 164 164 162 171 172 171 175 178 180 178 178 178 184
157 156 140 140 132 167 180 151 93 82 333 227 244 96 190 344 346 352 358 22 13 15 32 359 351 1 8 93 129 160 154 147 151 157 165 165 168 175 179 179 181 184 185 187
59 118 249 171 135 141 149 160 160 161 182 300 254 295 317 338 338 342 5 47 32 35 39 6 352 351 22 31 71 131 131 146 152 158 160 163 168 176 176 179 182 185 192 195
27 89 93 88 101 115 138 153 166 228 253 259 314 319 323 334 346 337 73 58 35 37 40 16 350 346 16 29 32 43 112 141 150 144 149 152 161 166 173 176 183 188 195 202
321 62 111 79 110 120 138 170 279 244 263 293 299 326 0 44 38 35 36 43 36 40 28 39 348 351 14 29 28 49 49 52 78 71 67 145 160 155 160 163 185 193 201 208
102 177 138 101 40 325 142 108 29 34 2 350 330 352 53 47 43 28 12 29 29 29 30 24 9 356 10 23 32 40 56 56 62 61 57 59 73 85 99 142 187 202 214 214
98 88 30 105 202 120 76 29 72 1 52 19 354 66 103 108 90 57 30 15 16 22 23 17 9 0 4 19 37 40 48 53 59 54 47 47 50 63 69 73 83 95 98 204
11 18 89 96 61 113 117 39 12 3 57 27 2 85 146 148 90 47 25 32 19 11 25 28 21 13 9 19 29 43 51 52 53 54 45 40 41 57 59 61 52 59 83 78
24 10 9 161 85 111 50 350 332 307 165 15 1 357 333 24 35 35 11 18 28 21 21 25 28 25 24 21 27 38 42 41 37 40 47 37 41 50 48 53 60 67 75 82
46 36 34 43 46 99 360 344 323 244 26 14 23 31 39 70 61 77 36 29 26 24 27 29 32 34 23 19 29 40 38 38 30 39 49 39 38 48 55 47 54 69 75 80
19 327 77 17 320 117 352 345 19 357 39 35 41 50 75 82 74 57 47 35 31 27 25 30 34 34 27 24 30 39 42 36 40 51 53 46 38 45 57 60 49 58 72 73
65 8 0 26 55 50 24 57 44 52 64 35 46 47 62 64 58 44 39 36 32 29 27 27 32 30 30 26 28 31 24 30 44 57 58 57 53 53 54 59 62 50 57 65
101 13 43 203 69 60 54 61 56 57 60 52 42 44 50 63 58 50 37 32 34 30 28 23 29 32 31 27 28 29 26 33 42 53 61 60 59 58 59 59 56 68 58 63
5 341 343 104 102 114 61 52 56 52 46 53 54 49 46 55 54 56 45 34 32 32 32 32 28 24 25 27 27 24 24 31 45 52 57 63 66 68 68 62 59 62 62 65
3 20 346 54 354 83 71 62 55 55 47 38 35 46 44 44 46 50 51 42 32 32 30 33 33 28 22 24 23 22 27 33 44 51 50 56 66 72 80 81 72 63 65 66